THOR ABLESTAR DEB, 1425

Orbit data source: Space-Track

THOR ABLESTAR DEB, 1425 is space debris in LEO originally from a launch on Thu, 24 Jun 1965 UTC launched from the Air Force Western Test Range (AFWTR). Debris objects in space refer to the collection of defunct objects orbiting the Earth. Examples of debris include non-operational satellites, rocket bodies, and fragments generated from explosions, collisions, or faulty payload assembly.

Loading next visibility...
Identifier
1425, 1965-048C
Orbit
LEO
Country
Flag of USUS
Related business
Manufacturer
APL
Mission
Spacecraft
Bus & Motor
Unknown
Mass
Unknown
Launch date (UTC)
1965-06-24 (61 years ago)
Launch vehicle
Unknown
Launch site
Air Force Western Test Range (AFWTR)
Object type
Payload
Rocket body
Debris
Shape & HBR
Unknown shape, 0.4 m
Radar Cross Section
Medium (>0.1 m² and <1 m²)

Expand to show TLE details & history
Last TLE update: 8 hours ago

TLE from 8 hours ago
0 THOR ABLESTAR DEB
1 01425U 65048C   26208.20593906  .00000034  00000-0  36250-4 0  9994
2 01425  89.8781 284.4167 0075751 109.4585 278.5631 13.48950351  5808
Epoch: 2026-07-27T04:56Z
TLE epoch observation values (Epoch: 2026-07-27T04:56:33.134Z)
Latitude
27.19777°
Longitude
-94.55189°
Altitude
1,071.512 km
Speed
7.323 km/s
True Right ascension
18h 57m 54s
True Declination
27° 03' 51"
Sunlit
Object was in full shadow at epoch
Visualization orbit readout
Latitude
Unknown
Longitude
Unknown
Altitude
Unknown
Speed
Unknown
Apparent Right ascension
Unknown
Apparent Declination
Unknown
Sunlit
N/A
Visualization observer readout
Local Sidereal Time
02:23:06
Azimuth
Unknown
Elevation
Unknown
Doppler factor
Unknown
Orbital elements
Apogee altitude
1,129.618 km
Perigee altitude
1,016.73 km
Semi-major axis
7,451.311 km
Eccentricity
0.00758
Inclination
89.8781°
RAAN
284.4167°
Arg. of periapsis
109.4585°
True anomaly
277.70355°
Mean anomaly
278.5631°
Eccentric anomaly
278.13344°
Mean motion
3.37438 °/min
Orbital period
106.69 mins
BSTAR
0.00003625
Loading maneuver chart data...
Computing Atmospheric mass density...

Documentation

Showing up to 5 results
|